AirNav   Duncan Aviation - Near you to keep you flying
 
 639 users online  

2NY0 Catskill Valley Airpark
South Cairo, New York, USA

GOING TO SOUTH CAIRO?


FAA INFORMATION EFFECTIVE 26 JANUARY 2023

Location

FAA Identifier: 2NY0
Lat/Long: 42-16-50.3110N 073-57-10.4710W
42-16.838517N 073-57.174517W
42.2806419,-73.9529086
(estimated)
Elevation: 190 ft. / 58 m (estimated)
Variation: 14W (1985)
From city: 3 miles SE of SOUTH CAIRO, NY
Time zone: UTC -5 (UTC -4 during Daylight Saving Time)
Zip code: 12451

Airport Operations

Airport use: Private use. Permission required prior to landing
Activation date: 06/1962
Control tower: no
ARTCC: BOSTON CENTER
FSS: BURLINGTON FLIGHT SERVICE STATION
Attendance: UNATNDD
Wind indicator: no
Segmented circle: no

Airport Communications

WX AWOS-3 at 1B1 (11 nm E): 133.525 (518-828-2577)

Nearby radio navigation aids

VOR radial/distance  VOR name  Freq  Var
ALBr206/28.8ALBANY VORTAC115.3013W
PWLr345/34.4PAWLING VOR/DME114.3012W
IGNr003/37.4KINGSTON VOR/DME117.6012W

 
NDB name  Hdg/Dist  Freq  Var  ID
PHILMONT292/10.327213WPFH .--. ..-. ....
HUNTER195/34.435614WHEU .... . ..-

Airport Services

Runway Information

Runway 2/20

Dimensions: 1475 x 50 ft. / 450 x 15 m
Surface: turf
RUNWAY 2  RUNWAY 20
Traffic pattern: leftleft

Airport Ownership and Management from official FAA records

Ownership: Privately-owned
Owner: CLEMENTS J HOOVLER JR
BOX 44
SOUTH CAIRO, NY 12482
Phone 518-622-3307
Manager: C J HOOVLER JR
BOX 44
SOUTH CAIRO, NY 12482
Phone 518-622-3307

Airport Operational Statistics

Aircraft based on the field: 2
Single engine airplanes: 2
    

Additional Remarks

FOR CD CTC ALBANY APCH AT 518-862-2299.

Instrument Procedures

There are no published instrument procedures at 2NY0.

Some nearby airports with instrument procedures:

1B1 - Columbia County Airport (11 nm E)
4B0 - South Albany Airport (18 nm N)
20N - Kingston-Ulster Airport (18 nm S)
KGBR - Walter J Koladza Airport (25 nm E)
KALB - Albany International Airport (29 nm N)
 
Loc | Ops | Rwys | IFR | FBO | Links
Com | Nav | Svcs | Stats | Notes
Area around 2NY0 (Catskill Valley Airpark)
 
Road maps at: MapQuest Bing Google
 
Aerial photo
No photo
 
Sectional chart

 
Airport distance calculator
Flying to Catskill Valley Airpark? Find the distance to fly.

From to 2NY0

Sunrise and sunset
Times for 02-Feb-2023
 Local
(UTC-5)
 Zulu
(UTC)
Morning civil twilight06:4011:40
Sunrise07:0912:09
Sunset17:1022:10
Evening civil twilight17:4022:40

Current date and time
Zulu (UTC)  02-Feb-2023 11:22:26
Local (UTC-5)  02-Feb-2023 06:22:26
 
METAR
KALB 
29nm N 
021051Z 17006KT 10SM FEW033 BKN130 BKN250 M07/M12 A3021 RMK AO2 SLP235 T10671117 $
KPSF 
31nm E 
021054Z AUTO 24005KT 10SM CLR M11/M14 A3014 RMK AO2 SLP228 T11061144
KSCH 
34nm N 
020255Z 21004KT 15SM CLR M08/M14 A3026 RMK LAST
TAF
KALB 
29nm N 
020714Z 0207/0306 17005KT P6SM SCT050 BKN120 FM021200 17007KT P6SM SCT100 FM021700 17011G17KT P6SM FEW080 FM030300 23010G18KT P6SM SCT050 PROB30 0303/0306 29020G32KT 2SM -SHSN BR BKN015
KPSF 
31nm E 
020523Z 0206/0306 23004KT P6SM SCT040 SCT120 FM021400 22007KT P6SM FEW100 FM021800 22011G19KT P6SM FEW090 FM030200 25013G23KT P6SM SCT070 PROB30 0303/0306 28020G32KT 1 1/2SM -SHSN BR BKN010
NOTAMs
Click for the latest NOTAMs
NOTAMs are issued by the DoD/FAA and will open in a separate window not controlled by AirNav.

 

 
 

Would you like to see your business listed on this page?

 If your business provides an interesting product or service to pilots, flight crews, aircraft, or users of the Catskill Valley Airpark, you should consider listing it here.  To start the listing process, click on the button below
 
Add a business
 

Other Pages about Catskill Valley Airpark

Update a link
 
Copyright © AirNav, LLC. All rights reserved. Privacy Policy  Contact